Weather History for KCOU - February, 2012

Change the Weather History Date:

Friday, February 3, 2012

  Actual Average Record
Temperature  
Mean Temperature 46 °F 31 °F  
Max Temperature 51 °F 40 °F 70 °F (1962)
Min Temperature 41 °F 22 °F -13 °F (1996)
Degree Days  
Heating Degree Days 19 34  
Month to date heating degree days 55 102  
Since 1 July heating degree days 2676 3191  
Cooling Degree Days 0 0  
Month to date cooling degree days 0 0  
Year to date cooling degree days 0 0  
Moisture  
Dew Point 38 °F    
Average Humidity 71    
Maximum Humidity 100    
Minimum Humidity 42    
Precipitation  
Precipitation 1.30 in 0.07 in 1.78 in (1903)
Month to date precipitation 1.30 0.20  
Year to date precipitation 2.04 2.12  
Snow  
Snow 0.00 in 0.20 in 4.50 in (1912)
Month to date snowfall 0.0 0.6  
Since 1 July snowfall 2.9 12.0  
Snow Depth 0.00 in    
Sea Level Pressure  
Sea Level Pressure 30.15 in    
Wind  
Wind Speed 13 mph (East)    
Max Wind Speed 25 mph    
Max Gust Speed 33 mph    
Visibility 7 miles    
Events Rain    
T = Trace of Precipitation, MM = Missing Value Source: NWS Daily Summary

Daily Weather History Graph

Daily Weather History Graph

Search for Another Location

Airport or City:

Trip Planner

Search our weather history database for the weather conditions in past years. The results will help you decide how hot, cold, wet, or windy it might be!

Date:

Astronomy

Feb. 03, 2012 Rise Set
Actual Time 7:13 AM CST 5:32 PM CST
Civil Twilight 6:45 AM CST 6:00 PM CST
Nautical Twilight 6:13 AM CST 6:32 PM CST
Astronomical Twilight 5:42 AM CST 7:03 PM CST
Moon 1:35 PM CST (2/3) 3:48 AM CST (2/3)
Length of Visible Light 11h 14m
Length of Day
10h 18m
Waxing Gibbous, 82% of the Moon is Illuminated
Feb 3
Waxing Gibbous
Feb 7
Full
Feb 14
Last Quarter
Feb 21
New
Feb 29
First Quarter

Hourly Weather History & Observations

Time (CST) Temp. Windchill Dew Point Humidity Pressure Visibility Wind Dir Wind Speed Gust Speed Precip Events Conditions
12:54 AM 45.0 °F 40.1 °F 30.0 °F 56% 30.25 in 10.0 mi East 9.2 mph - N/A   Clear
1:54 AM 43.0 °F 37.7 °F 30.0 °F 60% 30.25 in 10.0 mi East 9.2 mph - N/A   Clear
2:54 AM 42.1 °F 36.6 °F 30.9 °F 65% 30.26 in 10.0 mi East 9.2 mph - N/A   Clear
3:54 AM 41.0 °F 35.2 °F 30.9 °F 67% 30.24 in 10.0 mi East 9.2 mph - N/A   Clear
4:54 AM 42.1 °F 36.1 °F 30.9 °F 65% 30.24 in 10.0 mi ESE 10.4 mph - N/A   Partly Cloudy
5:54 AM 43.0 °F 36.8 °F 30.9 °F 62% 30.22 in 10.0 mi ESE 11.5 mph - N/A   Clear
6:54 AM 43.0 °F 36.4 °F 30.9 °F 62% 30.22 in 10.0 mi ESE 12.7 mph - N/A   Partly Cloudy
7:54 AM 44.1 °F 37.4 °F 30.9 °F 60% 30.22 in 10.0 mi ESE 13.8 mph - N/A   Clear
8:54 AM 48.9 °F - 32.0 °F 52% 30.19 in 10.0 mi ESE 16.1 mph 26.5 mph N/A   Clear
9:54 AM 50.0 °F - 28.9 °F 44% 30.19 in 10.0 mi ESE 18.4 mph 27.6 mph N/A   Mostly Cloudy
10:54 AM 48.9 °F - 32.0 °F 52% 30.18 in 10.0 mi ESE 13.8 mph - 0.00 in Rain Light Rain
11:54 AM 44.1 °F 38.6 °F 39.0 °F 82% 30.23 in 3.0 mi NNE 10.4 mph - 0.10 in Rain Rain
12:54 PM 44.1 °F 38.1 °F 39.0 °F 82% 30.19 in 5.0 mi NE 11.5 mph - 0.16 in Rain Light Rain
1:54 PM 44.1 °F 37.1 °F 39.0 °F 82% 30.15 in 5.0 mi ENE 15.0 mph - 0.04 in Rain Rain
2:54 PM 44.1 °F 37.4 °F 39.9 °F 85% 30.12 in 3.0 mi East 13.8 mph - 0.07 in Rain Rain
3:06 PM 44.6 °F 38.1 °F 39.2 °F 81% 30.11 in 2.5 mi ENE 13.8 mph - 0.04 in Rain Rain
3:13 PM 44.6 °F 38.1 °F 39.2 °F 81% 30.11 in 5.0 mi ENE 13.8 mph - 0.06 in Rain Light Rain
3:54 PM 44.1 °F 37.7 °F 39.9 °F 85% 30.12 in 9.0 mi ENE 12.7 mph - 0.09 in Rain Light Rain
4:12 PM 42.8 °F 37.0 °F 41.0 °F 93% 30.10 in 5.0 mi ENE 10.4 mph - 0.02 in Rain Light Rain
4:54 PM 43.0 °F 35.7 °F 39.9 °F 89% 30.10 in 6.0 mi East 15.0 mph - 0.06 in Rain Light Rain
5:54 PM 43.0 °F 36.4 °F 41.0 °F 93% 30.11 in 7.0 mi East 12.7 mph - 0.01 in   Overcast
6:22 PM 42.8 °F 35.1 °F 41.0 °F 93% 30.17 in 5.0 mi WNW 16.1 mph - 0.00 in Rain Rain
6:36 PM 42.8 °F 35.4 °F 42.8 °F 100% 30.13 in 1.8 mi NE 15.0 mph - 0.10 in Rain Heavy Rain
6:41 PM 42.8 °F 35.8 °F 42.8 °F 100% 30.12 in 2.0 mi ENE 13.8 mph - 0.21 in Rain Rain
6:46 PM 42.8 °F 37.0 °F 42.8 °F 100% 30.14 in 3.0 mi East 10.4 mph - 0.22 in Rain Heavy Rain
6:54 PM 43.0 °F 35.7 °F 43.0 °F 100% 30.14 in 2.5 mi East 15.0 mph - 0.29 in Rain Heavy Rain
7:14 PM 42.8 °F 36.6 °F 42.8 °F 100% 30.13 in 3.0 mi East 11.5 mph 20.7 mph 0.15 in Rain Heavy Rain
7:26 PM 42.8 °F 35.8 °F 42.8 °F 100% 30.12 in 4.0 mi ENE 13.8 mph - 0.22 in Rain Heavy Rain
7:54 PM 43.0 °F 36.4 °F 43.0 °F 100% 30.11 in 7.0 mi East 12.7 mph 24.2 mph 0.32 in Rain Light Rain
8:22 PM 42.8 °F 35.1 °F 42.8 °F 100% 30.09 in 9.0 mi East 16.1 mph - 0.02 in Rain Light Rain
8:54 PM 43.0 °F 35.1 °F 43.0 °F 100% 30.10 in 6.0 mi East 17.3 mph - 0.05 in Rain Rain
9:54 PM 44.1 °F 36.2 °F 43.0 °F 96% 30.03 in 10.0 mi ESE 18.4 mph 29.9 mph 0.11 in   Overcast
10:54 PM 44.1 °F 37.4 °F 44.1 °F 100% 30.01 in 10.0 mi ESE 13.8 mph 21.9 mph 0.00 in Rain Light Rain
11:54 PM 44.1 °F 37.7 °F 44.1 °F 100% 30.03 in 10.0 mi ESE 12.7 mph - 0.00 in   Overcast